Regional Weather Roundup
Issued by NWS

Home | Current Version | Previous Version | Text Only | Print | Product List | Glossary On
Versions: 1 2 3 4 5 6 7 8 9 10 11 12 13 14 15 16 17 18 19 20 21 22 23 24 25 26 27 28 29 30 31 32 33 34 35 36 37 38 39 40 41 42 43 44 45 46 47 48 49 50
712
ASUS43 KLSX 230607
RWRMO

WEATHER SUMMARY FOR MISSOURI
NATIONAL WEATHER SERVICE SPRINGFIELD MO
100 AM CDT TUE MAY 23 2017

NOTE: "FAIR" INDICATES FEW OR NO CLOUDS BELOW 12,000 FEET WITH NO
       SIGNIFICANT WEATHER AND/OR OBSTRUCTIONS TO VISIBILITY.
       CURRENT SKY AND/OR WEATHER CONDITIONS ARE NOT AVAILABLE FOR
       CHILLICOTHE AND FARMINGTON.

MOZ001>031-035>038-043-044-053-054-230700-
...NORTHERN AND WESTERN MISSOURI...

CITY           SKY/WX    TMP DP  RH WIND       PRES   REMARKS
KANSAS CTY INT CLOUDY    52  52 100 S7        29.89S FOG
6HR MIN TEMP:  52; 6HR MAX TEMP:  59; 6HR PCP:  0.04;

KANSAS C DTWN  PTCLDY    57  55  93 CALM      29.89S
6HR MIN TEMP:  57; 6HR MAX TEMP:  62; 6HR PCP:  0.05;

LEE`S SUMMIT   CLOUDY    56  56 100 SE6       29.89F
6HR MIN TEMP:  56; 6HR MAX TEMP:  60; 6HR PCP:  0.18;

ST JOSEPH      CLOUDY    56  56 100 SW8       29.89F FOG
6HR MIN TEMP:  53; 6HR MAX TEMP:  61;

CHILLICOTHE      N/A     56  55  97 S3        29.89F
6HR MIN TEMP:  55; 6HR MAX TEMP:  59; 6HR PCP:  0.06;

KIRKSVILLE     CLOUDY    56  55  97 SW3       29.89F
6HR MIN TEMP:  56; 6HR MAX TEMP:  59; 6HR PCP:  0.13;


$$
MOZ066>068-077>081-088>096-101>105-230700-
...SOUTHWEST MISSOURI...

CITY           SKY/WX    TMP DP  RH WIND       PRES   REMARKS
SPRINGFIELD    CLOUDY    60  51  72 S7        29.87F
6HR MIN TEMP:  60; 6HR MAX TEMP:  71;

JOPLIN         CLOUDY    64  58  80 W5        29.89F
6HR MIN TEMP:  64; 6HR MAX TEMP:  71;

BRANSON        PTCLDY    59  50  72 S6        29.90F

$$
MOZ032>034-039>042-045>050-055>058-069>072-230700-
...CENTRAL MISSOURI...

CITY           SKY/WX    TMP DP  RH WIND       PRES   REMARKS
COLUMBIA       CLOUDY    57  55  93 E8        29.89F
6HR MIN TEMP:  57; 6HR MAX TEMP:  70; 6HR PCP:  0.02;

JEFFERSON CITY CLOUDY    61  54  77 VRB3      29.90F
6HR MIN TEMP:  61; 6HR MAX TEMP:  75;

ROLLA          CLOUDY    59  55  87 SE7       29.89F
6HR MIN TEMP:  57; 6HR MAX TEMP:  67;

SEDALIA        CLOUDY    57  57 100 NW3       29.92F
6HR MIN TEMP:  57; 6HR MAX TEMP:  70; 6HR PCP:  0.03;

WHITEMAN AFB   CLOUDY    57  57 100 NE7       29.89F
WARRENSBURG    LGT RAIN  55  54  94 CALM      29.91F
OSAGE BEACH    CLOUDY    59  55  87 NE6       29.90F

$$
MOZ051-052-059>065-230700-
...EAST CENTRAL MISSOURI...

CITY           SKY/WX    TMP DP  RH WIND       PRES   REMARKS
ST LOUIS INTL  NOT AVBL
SPIRIT OF STL  CLOUDY    64  58  80 NE3       29.89F
6HR MIN TEMP:  62; 6HR MAX TEMP:  71;

ST CHARLES     CLOUDY    62  56  80 NE15      29.90F
6HR MIN TEMP:  62; 6HR MAX TEMP:  73;


$$
MOZ072>076-082>087-097>100-106>115-230700-
...SOUTH CENTRAL AND SOUTHEAST MISSOURI...

CITY           SKY/WX    TMP DP  RH WIND       PRES   REMARKS
CAPE GIRARDEAU CLOUDY    60  56  86 SE5       29.91F
6HR MIN TEMP:  59; 6HR MAX TEMP:  71;

FARMINGTON     PTCLDY    58  53  84 CALM      29.91F
6HR MIN TEMP:  58; 6HR MAX TEMP:  69;

POPLAR BLUFF   PTCLDY    60  58  92 CALM      29.91F
6HR MIN TEMP:  60; 6HR MAX TEMP:  75;

WEST PLAINS    MOCLDY    62  52  69 S5        29.92F
6HR MIN TEMP:  58; 6HR MAX TEMP:  70;


$$



USA.gov is the U.S. government's official web portal to all federal, state and local government web resources and services.